Time,TemperatureF,DewpointF,PressureIn,WindDirection,WindDirectionDegrees,WindSpeedMPH,WindSpeedGustMPH,Humidity,HourlyPrecipIn,Conditions,Clouds,dailyrainin,SoftwareType,DateUTC
2013-06-29 00:10:00,67.5,67.0,29.85,SE,138,0.0,0.0,97,0.00,,,0.00,weatherlink.com 1.10,2013-06-29 04:10:00,
2013-06-29 00:25:00,67.3,67.0,29.85,SE,138,0.0,1.0,97,0.00,,,0.00,weatherlink.com 1.10,2013-06-29 04:25:00,
2013-06-29 00:41:00,67.2,67.0,29.84,SE,139,0.0,0.0,98,0.00,,,0.00,weatherlink.com 1.10,2013-06-29 04:41:00,
2013-06-29 00:56:00,67.2,67.0,29.84,SE,138,0.0,0.0,98,0.00,,,0.00,weatherlink.com 1.10,2013-06-29 04:56:00,
2013-06-29 01:11:00,67.1,67.0,29.82,SE,138,0.0,0.0,98,0.00,,,0.00,weatherlink.com 1.10,2013-06-29 05:11:00,
2013-06-29 01:26:00,67.1,67.0,29.82,SE,138,0.0,0.0,98,0.00,,,0.00,weatherlink.com 1.10,2013-06-29 05:26:00,
2013-06-29 01:41:00,66.6,66.0,29.82,SE,138,0.0,0.0,97,0.00,,,0.00,weatherlink.com 1.10,2013-06-29 05:41:00,
2013-06-29 01:56:00,66.1,65.0,29.82,SE,138,0.0,0.0,97,0.00,,,0.00,weatherlink.com 1.10,2013-06-29 05:56:00,
2013-06-29 02:11:00,66.2,66.0,29.82,SE,138,0.0,0.0,98,0.00,,,0.00,weatherlink.com 1.10,2013-06-29 06:11:00,
2013-06-29 02:26:00,65.9,65.0,29.81,SE,138,0.0,0.0,98,0.00,,,0.00,weatherlink.com 1.10,2013-06-29 06:26:00,
2013-06-29 02:41:00,66.3,66.0,29.82,SE,138,0.0,0.0,98,0.00,,,0.00,weatherlink.com 1.10,2013-06-29 06:41:00,
2013-06-29 02:58:00,66.4,66.0,29.82,West,262,0.0,1.0,98,0.00,,,0.00,weatherlink.com 1.10,2013-06-29 06:58:00,
2013-06-29 03:11:00,66.3,66.0,29.82,West,262,0.0,0.0,98,0.00,,,0.00,weatherlink.com 1.10,2013-06-29 07:11:00,
2013-06-29 03:26:00,66.4,66.0,29.82,West,262,0.0,0.0,98,0.00,,,0.00,weatherlink.com 1.10,2013-06-29 07:26:00,
2013-06-29 03:41:00,66.3,66.0,29.82,West,262,0.0,0.0,97,0.00,,,0.00,weatherlink.com 1.10,2013-06-29 07:41:00,
2013-06-29 03:56:00,66.1,65.0,29.82,West,262,0.0,0.0,97,0.00,,,0.00,weatherlink.com 1.10,2013-06-29 07:56:00,
2013-06-29 04:11:00,65.9,65.0,29.82,West,268,0.0,1.0,97,0.00,,,0.00,weatherlink.com 1.10,2013-06-29 08:11:00,
2013-06-29 04:26:00,65.7,65.0,29.82,West,269,0.0,0.0,97,0.00,,,0.00,weatherlink.com 1.10,2013-06-29 08:26:00,
2013-06-29 04:41:00,65.2,64.0,29.81,SSE,156,0.0,1.0,97,0.00,,,0.00,weatherlink.com 1.10,2013-06-29 08:41:00,
2013-06-29 04:56:00,65.1,64.0,29.82,SSE,156,0.0,0.0,97,0.00,,,0.00,weatherlink.com 1.10,2013-06-29 08:56:00,
2013-06-29 05:11:00,65.3,65.0,29.83,SSE,156,0.0,0.0,97,0.00,,,0.00,weatherlink.com 1.10,2013-06-29 09:11:00,
2013-06-29 05:26:00,64.8,64.0,29.83,WNW,300,0.0,1.0,96,0.00,,,0.00,weatherlink.com 1.10,2013-06-29 09:26:00,
2013-06-29 05:41:00,64.1,63.0,29.83,West,260,0.0,1.0,97,0.00,,,0.00,weatherlink.com 1.10,2013-06-29 09:41:00,
2013-06-29 05:56:00,63.7,63.0,29.84,WSW,256,0.0,1.0,97,0.00,,,0.00,weatherlink.com 1.10,2013-06-29 09:56:00,
2013-06-29 06:11:00,63.1,62.0,29.84,SW,215,0.0,2.0,97,0.00,,,0.00,weatherlink.com 1.10,2013-06-29 10:11:00,
2013-06-29 06:26:00,62.8,62.0,29.84,WSW,248,0.0,1.0,97,0.00,,,0.00,weatherlink.com 1.10,2013-06-29 10:26:00,
2013-06-29 06:41:00,62.4,62.0,29.84,WSW,255,0.0,1.0,97,0.00,,,0.00,weatherlink.com 1.10,2013-06-29 10:41:00,
2013-06-29 06:56:00,62.6,62.0,29.84,WSW,255,0.0,0.0,98,0.00,,,0.00,weatherlink.com 1.10,2013-06-29 10:56:00,
2013-06-29 07:11:00,62.8,62.0,29.85,WSW,248,0.0,1.0,97,0.00,,,0.00,weatherlink.com 1.10,2013-06-29 11:11:00,
2013-06-29 07:26:00,63.3,62.0,29.85,WSW,249,0.0,0.0,96,0.00,,,0.00,weatherlink.com 1.10,2013-06-29 11:26:00,
2013-06-29 07:41:00,63.8,62.0,29.85,WSW,250,0.0,0.0,95,0.00,,,0.00,weatherlink.com 1.10,2013-06-29 11:41:00,
2013-06-29 07:57:00,64.0,62.0,29.85,South,190,0.0,1.0,94,0.00,,,0.00,weatherlink.com 1.10,2013-06-29 11:57:00,
2013-06-29 08:12:00,65.8,63.0,29.85,ESE,115,0.0,1.0,90,0.00,,,0.00,weatherlink.com 1.10,2013-06-29 12:12:00,
2013-06-29 08:27:00,66.4,64.0,29.85,WSW,252,0.0,1.0,91,0.00,,,0.00,weatherlink.com 1.10,2013-06-29 12:27:00,
2013-06-29 08:42:00,67.3,64.0,29.85,ESE,118,0.0,1.0,89,0.00,,,0.00,weatherlink.com 1.10,2013-06-29 12:42:00,
2013-06-29 08:57:00,67.3,64.0,29.85,SE,145,0.0,1.0,90,0.00,,,0.00,weatherlink.com 1.10,2013-06-29 12:57:00,
2013-06-29 09:12:00,68.2,65.0,29.85,SSE,148,0.0,1.0,89,0.00,,,0.00,weatherlink.com 1.10,2013-06-29 13:12:00,
2013-06-29 09:27:00,68.3,65.0,29.85,SSE,165,1.0,2.0,90,0.00,,,0.00,weatherlink.com 1.10,2013-06-29 13:27:00,
2013-06-29 09:42:00,68.5,65.0,29.85,NE,36,1.0,2.0,88,0.00,,,0.00,weatherlink.com 1.10,2013-06-29 13:42:00,
2013-06-29 09:57:00,68.4,64.0,29.85,SE,124,0.0,1.0,87,0.00,,,0.00,weatherlink.com 1.10,2013-06-29 13:57:00,
2013-06-29 10:12:00,69.0,65.0,29.85,ESE,121,0.0,0.0,87,0.00,,,0.00,weatherlink.com 1.10,2013-06-29 14:12:00,
2013-06-29 10:27:00,69.4,66.0,29.85,SE,138,0.0,1.0,89,0.00,,,0.00,weatherlink.com 1.10,2013-06-29 14:27:00,
2013-06-29 10:42:00,70.0,66.0,29.85,SE,135,0.0,1.0,88,0.00,,,0.00,weatherlink.com 1.10,2013-06-29 14:42:00,
2013-06-29 10:57:00,72.1,68.0,29.84,East,79,0.0,2.0,86,0.00,,,0.00,weatherlink.com 1.10,2013-06-29 14:57:00,
2013-06-29 11:12:00,74.1,68.0,29.84,NE,36,0.0,2.0,80,0.00,,,0.00,weatherlink.com 1.10,2013-06-29 15:12:00,
2013-06-29 11:27:00,76.8,69.0,29.84,WNW,302,0.0,2.0,77,0.00,,,0.00,weatherlink.com 1.10,2013-06-29 15:27:00,
2013-06-29 11:42:00,79.2,69.0,29.84,ESE,122,2.0,3.0,71,0.00,,,0.00,weatherlink.com 1.10,2013-06-29 15:42:00,
2013-06-29 11:57:00,80.4,63.0,29.84,East,100,2.0,9.0,55,0.00,,,0.00,weatherlink.com 1.10,2013-06-29 15:57:00,
2013-06-29 12:12:00,80.8,58.0,29.83,NW,309,1.0,4.0,46,0.00,,,0.00,weatherlink.com 1.10,2013-06-29 16:12:00,
2013-06-29 12:27:00,81.4,59.0,29.83,East,85,1.0,6.0,46,0.00,,,0.00,weatherlink.com 1.10,2013-06-29 16:27:00,
2013-06-29 12:42:00,82.1,57.0,29.83,WSW,241,2.0,5.0,43,0.00,,,0.00,weatherlink.com 1.10,2013-06-29 16:42:00,
2013-06-29 12:57:00,83.1,56.0,29.84,NNW,327,1.0,8.0,39,0.00,,,0.00,weatherlink.com 1.10,2013-06-29 16:57:00,
2013-06-29 13:12:00,83.4,57.0,29.84,NW,318,4.0,7.0,40,0.00,,,0.00,weatherlink.com 1.10,2013-06-29 17:12:00,
2013-06-29 13:27:00,84.1,58.0,29.84,WNW,283,3.0,7.0,41,0.00,,,0.00,weatherlink.com 1.10,2013-06-29 17:27:00,
2013-06-29 13:42:00,84.1,55.0,29.83,NW,325,2.0,8.0,37,0.00,,,0.00,weatherlink.com 1.10,2013-06-29 17:42:00,
2013-06-29 13:57:00,84.7,57.0,29.83,NW,310,1.0,5.0,39,0.00,,,0.00,weatherlink.com 1.10,2013-06-29 17:57:00,
2013-06-29 14:12:00,84.6,57.0,29.83,ENE,72,2.0,6.0,39,0.00,,,0.00,weatherlink.com 1.10,2013-06-29 18:12:00,
2013-06-29 14:27:00,85.0,57.0,29.82,NW,304,1.0,7.0,39,0.00,,,0.00,weatherlink.com 1.10,2013-06-29 18:27:00,
2013-06-29 14:42:00,85.8,58.0,29.82,West,274,1.0,3.0,39,0.00,,,0.00,weatherlink.com 1.10,2013-06-29 18:42:00,
2013-06-29 14:57:00,84.7,58.0,29.82,NW,307,1.0,-999.0,41,-99.99,,,0.00,weatherlink.com 1.10,2013-06-29 18:57:00,
2013-06-29 15:12:00,83.1,64.0,29.82,SW,225,1.0,6.0,52,0.00,,,0.00,weatherlink.com 1.10,2013-06-29 19:12:00,
2013-06-29 15:28:00,84.0,65.0,29.81,SW,228,1.0,5.0,53,0.00,,,0.00,weatherlink.com 1.10,2013-06-29 19:28:00,
2013-06-29 15:43:00,83.8,64.0,29.81,West,268,2.0,5.0,51,0.00,,,0.00,weatherlink.com 1.10,2013-06-29 19:43:00,
2013-06-29 15:58:00,83.8,63.0,29.81,West,274,2.0,6.0,50,0.00,,,0.00,weatherlink.com 1.10,2013-06-29 19:58:00,
2013-06-29 16:13:00,83.0,62.0,29.81,SE,129,0.0,6.0,49,0.00,,,0.00,weatherlink.com 1.10,2013-06-29 20:13:00,
2013-06-29 16:28:00,81.5,62.0,29.81,North,352,1.0,3.0,52,0.00,,,0.00,weatherlink.com 1.10,2013-06-29 20:28:00,
2013-06-29 16:43:00,82.3,62.0,29.81,West,272,1.0,3.0,50,0.00,,,0.00,weatherlink.com 1.10,2013-06-29 20:43:00,
2013-06-29 16:58:00,83.4,59.0,29.81,ESE,118,2.0,5.0,44,0.00,,,0.00,weatherlink.com 1.10,2013-06-29 20:58:00,
2013-06-29 17:13:00,83.5,61.0,29.81,WNW,292,2.0,4.0,47,0.00,,,0.00,weatherlink.com 1.10,2013-06-29 21:13:00,
2013-06-29 17:28:00,82.2,61.0,29.81,NW,304,0.0,2.0,48,0.00,,,0.00,weatherlink.com 1.10,2013-06-29 21:28:00,
2013-06-29 17:43:00,81.8,60.0,29.81,WSW,244,0.0,5.0,48,0.00,,,0.00,weatherlink.com 1.10,2013-06-29 21:43:00,
2013-06-29 17:58:00,81.7,61.0,29.80,ESE,113,1.0,4.0,49,0.00,,,0.00,weatherlink.com 1.10,2013-06-29 21:58:00,
2013-06-29 18:13:00,82.2,56.0,29.80,NW,309,1.0,4.0,41,0.00,,,0.00,weatherlink.com 1.10,2013-06-29 22:13:00,
2013-06-29 18:28:00,82.3,57.0,29.80,NW,313,0.0,3.0,42,0.00,,,0.00,weatherlink.com 1.10,2013-06-29 22:28:00,
2013-06-29 18:43:00,81.7,56.0,29.80,NW,314,0.0,3.0,42,0.00,,,0.00,weatherlink.com 1.10,2013-06-29 22:43:00,
2013-06-29 18:58:00,80.6,57.0,29.81,North,1,0.0,1.0,45,0.00,,,0.00,weatherlink.com 1.10,2013-06-29 22:58:00,
2013-06-29 19:13:00,79.3,61.0,29.81,ESE,115,0.0,2.0,54,0.00,,,0.00,weatherlink.com 1.10,2013-06-29 23:13:00,
2013-06-29 19:28:00,78.2,62.0,29.82,SE,129,2.0,2.0,57,0.00,,,0.00,weatherlink.com 1.10,2013-06-29 23:28:00,
2013-06-29 19:43:00,77.7,61.0,29.82,NE,43,0.0,3.0,56,0.00,,,0.00,weatherlink.com 1.10,2013-06-29 23:43:00,
2013-06-29 19:58:00,76.8,61.0,29.82,East,87,1.0,1.0,58,0.00,,,0.00,weatherlink.com 1.10,2013-06-29 23:58:00,
2013-06-29 20:13:00,75.7,62.0,29.82,East,96,0.0,0.0,62,0.00,,,0.00,weatherlink.com 1.10,2013-06-30 00:13:00,
2013-06-29 20:28:00,74.4,62.0,29.82,North,356,0.0,0.0,66,0.00,,,0.00,weatherlink.com 1.10,2013-06-30 00:28:00,
2013-06-29 20:43:00,73.3,64.0,29.83,North,355,0.0,1.0,72,0.00,,,0.00,weatherlink.com 1.10,2013-06-30 00:43:00,
2013-06-29 20:58:00,71.3,64.0,29.83,North,355,0.0,0.0,78,0.00,,,0.00,weatherlink.com 1.10,2013-06-30 00:58:00,
2013-06-29 21:13:00,69.9,63.0,29.84,North,354,0.0,0.0,79,0.00,,,0.00,weatherlink.com 1.10,2013-06-30 01:13:00,
2013-06-29 21:28:00,68.7,63.0,29.84,North,355,0.0,0.0,81,0.00,,,0.00,weatherlink.com 1.10,2013-06-30 01:28:00,
2013-06-29 21:43:00,67.7,62.0,29.85,North,354,0.0,0.0,83,0.00,,,0.00,weatherlink.com 1.10,2013-06-30 01:43:00,
2013-06-29 21:58:00,66.8,63.0,29.86,North,354,0.0,0.0,87,0.00,,,0.00,weatherlink.com 1.10,2013-06-30 01:58:00,
2013-06-29 22:13:00,66.1,63.0,29.86,North,354,0.0,0.0,88,0.00,,,0.00,weatherlink.com 1.10,2013-06-30 02:13:00,
2013-06-29 22:28:00,65.5,62.0,29.88,North,354,0.0,0.0,89,0.00,,,0.00,weatherlink.com 1.10,2013-06-30 02:28:00,
2013-06-29 22:43:00,65.5,62.0,29.88,NW,312,0.0,1.0,89,0.00,,,0.00,weatherlink.com 1.10,2013-06-30 02:43:00,
2013-06-29 22:58:00,65.2,62.0,29.88,NNE,27,0.0,1.0,90,0.00,,,0.00,weatherlink.com 1.10,2013-06-30 02:58:00,
2013-06-29 23:13:00,64.8,62.0,29.88,NNE,25,0.0,1.0,89,0.00,,,0.00,weatherlink.com 1.10,2013-06-30 03:13:00,
2013-06-29 23:28:00,64.0,61.0,29.87,NNE,25,0.0,0.0,90,0.00,,,0.00,weatherlink.com 1.10,2013-06-30 03:28:00,
2013-06-29 23:43:00,63.4,61.0,29.87,NNE,25,0.0,0.0,92,0.00,,,0.00,weatherlink.com 1.10,2013-06-30 03:43:00,
2013-06-29 23:57:00,62.9,61.0,29.88,NNE,24,0.0,0.0,93,0.00,,,0.00,weatherlink.com 1.10,2013-06-30 03:57:00,